Skip Page Navigation
NASA JPL Caltech
NASA Logo - Jet Propulsion Laboratory + View the NASA Portal
+ Center for Near-Earth Object Studies
JPL Home Earth Solar System Stars & Galaxies Technology
JPL Solar System Dynamics
BODIES ORBITS EPHEMERIDES TOOLS PHYSICAL DATA DISCOVERY FAQ SITE MAP
JPL Small-Body Database Browser
Search: [ help ]  
221698 Juliusolsen (2007 DQ63)
Classification: Main-belt Asteroid          SPK-ID: 2221698
Ephemeris | Orbit Diagram | Orbital Elements | Mission Design | Physical Parameters | Discovery Circumstances | Close-Approach Data ]

[ hide orbit diagram ]

For accurate long-term ephemerides, please instead use our Horizons system.This orbit viewer was implemented using two-body methods, and hence should not be used for determining accurate long-term trajectories (over several years or decades) or planetary encounter circumstances.


Orbital Elements at Epoch 2459200.5 (2020-Dec-17.0) TDB
Reference: JPL 16 (heliocentric ecliptic J2000)
 Element Value Uncertainty (1-sigma)   Units 
e .01344921444752505 4.6605e-08  
a 2.790674497377335 2.2484e-08 au
q 2.753142117608868 1.3531e-07 au
i 4.098794756437046 4.6618e-06 deg
node 358.6140840510727 6.125e-05 deg
peri 134.0393305831761 0.00020121 deg
M 8.730081917046066 0.00018869 deg
tp 2459159.206849377772
(2020-Nov-05.70684938)
0.00089259 TDB
period 1702.794356943673
4.66
2.0579e-05
5.634e-08
d
yr
n .2114171911199894 2.5551e-09 deg/d
Q 2.828206877145802 2.2787e-08 au
  Orbit Determination Parameters
   # obs. used (total)      362  
   data-arc span      7413 days (20.30 yr)  
   first obs. used      2000-10-01  
   last obs. used      2021-01-17  
   planetary ephem.      DE431  
   SB-pert. ephem.      SB431-N16  
   condition code      0  
   norm. resid. RMS      .57397  
   source      ORB  
   producer      Otto Matic  
   solution date      2021-Feb-24 12:59:01  

Additional Information
 Earth MOID = 1.76645 au 
 Jupiter MOID = 2.14515 au 
 T_jup = 3.325 
[ show covariance matrix ]

Ephemeris | Orbit Diagram | Orbital Elements | Mission Design | Physical Parameters | Discovery Circumstances | Close-Approach Data ]

Physical Parameter Table
Parameter Symbol Value Units Sigma Reference Notes
absolute magnitude H 16.1   n/a MPO533535  

221698 Juliusolsen           Discovered 2007 Feb. 21 by R. Holmes at Charleston.
Julius Olsen (b. 1873) was Dean of Hardin-Simmons University (Abilene, TX) from 1902 until 1940. Over four decades, he taught astronomy and physics to thousands of students, being instrumental in bringing science education to West Texas at the turn of the 20th Century. Suggested by his grandson, N. H. Olsen.
NOTE: some special characters may not display properly (any characters within {} are an attempt to place the proper accent above a character)
Reference: MPC batch dated 2017-03-12Last Updated: 2017-03-14

[ show close-approach data ]
Ephemeris | Orbit Diagram | Orbital Elements | Mission Design | Physical Parameters | Discovery Circumstances | Close-Approach Data ]
ABOUT SSD CREDITS/AWARDS PRIVACY/COPYRIGHT GLOSSARY LINKS
FirstGov 2021-Mar-09 05:49 UT
(server date/time)  
NASA Home Page
Site Manager:   Ryan S. Park
Webmaster  Alan B. Chamberlin